Regional Weather Roundup
Issued by NWS

Home | Current Version | Previous Version | Text Only | Print | Product List | Glossary Off
Versions: 1 2 3 4 5 6 7 8 9 10 11 12 13 14 15 16 17 18 19 20 21 22 23 24 25 26 27 28 29 30 31 32 33 34 35 36 37 38 39 40 41 42 43 44 45 46 47 48 49 50

000
ASUS43 KLOT 230809
RWRIL

ILLINOIS REGIONAL WEATHER ROUNDUP
NATIONAL WEATHER SERVICE CHICAGO/ROMEOVILLE IL
300 AM CDT SUN JUL 23 2017

NOTE: "FAIR" INDICATES FEW OR NO CLOUDS BELOW 12,000 FEET WITH NO
SIGNIFICANT WEATHER AND/OR OBSTRUCTIONS TO VISIBILITY.

* THESE STATIONS ARE NOT UNDER NWS QUALITY CONTROL. THEY ALSO MAY NOT
  REPORT WEATHER SUCH AS PRECIPITATION OR FOG.

ILZ001-002-007-009-015-016-024-230900-
NORTHWEST ILLINOIS

CITY           SKY/WX    TMP DP  RH WIND       PRES   REMARKS
MOLINE         CLOUDY    75  73  93 W5        29.81S
STERLING*      CLOUDY    74  73  97 CALM      29.81S
SAVANNA*       CLOUDY    74  73  99 NW3       29.80F
$$

ILZ003-004-008-010-011-017-018-230900-
NORTH CENTRAL ILLINOIS

CITY           SKY/WX    TMP DP  RH WIND       PRES   REMARKS
ROCKFORD       PTCLDY    75  72  90 NW3       29.81F
FREEPORT*      CLOUDY    73  72  98 W3        29.82F
ROCHELLE*      CLOUDY    73  73  99 CALM      29.81F FOG
DE KALB*       PTCLDY    74  73  96 NW5       29.82S
PERU*          MOCLDY   N/A N/A N/A NW7       29.81R
$$

ILZ005-006-012>014-019>023-230900-
NORTHEAST ILLINOIS

CITY           SKY/WX    TMP DP  RH WIND       PRES   REMARKS
CHICAGO-OHARE  PTCLDY    73  70  90 CALM      29.79S
CHICAGO-MIDWAY MOCLDY    75  70  84 CALM      29.79R
AURORA         CLOUDY    73  73 100 CALM      29.80F
LANSING*       PTCLDY    72  68  87 CALM      29.78F
JOLIET*        CLOUDY    76  73  89 CALM      29.79F
WAUKEGAN       PTCLDY    69  69 100 SW3       29.78F FOG
DUPAGE AIRPORT CLOUDY    72  71  97 CALM      29.79F
WHEELING       PTCLDY    73  72  96 CALM      29.81S
MORRIS*        CLOUDY    75  74  96 CALM      29.78F
ROMEOVILLE*    CLOUDY    73  69  89 CALM      29.79F
NORTHERLY ISL    N/A     73  69  87 CALM        N/A
$$

LMZ740>746-230900-
SOUTHERN LAKE MICHIGAN

STATION/POSITION SKY/WX   TEMP    WIND        PRES    VSBY  WAVE
                          AIR SEA DIR/SP/G                  HT/PER
                          (F)     (DEG/KT/KT) (MB)    (MI)  (FT/S)
SOUTHERN BUOY              70 70  300/  2/  2 1009.3          0
WILMETTE HARBOR            72 73  230/  4/  4   N/A           0
HARRISON CRIB              74     160/  2/  2   N/A
BURNHAM HARBOR             72                   N/A
CALUMET HARBOR             74     240/  1/  2 1008.3F
BURNS HARBOR               73      CALM  /  1 1009.1F
MICHIGAN CITY              73     140/  3/  3   N/A
MICHIGAN CITY 6N           74 75  180/  2/  2   N/A           0
ST. JOSEPH                 72 74  130/  2/  4 1008.2          1
$$

ILZ025>027-034>036-040-047-049-050-058-095>099-230900-
WEST-CENTRAL ILLINOIS

CITY           SKY/WX    TMP DP  RH WIND       PRES   REMARKS
QUINCY         CLOUDY    79  77  94 W10       29.90R HX  83
GALESBURG*     CLOUDY    74  74  99 W3        29.84S FOG
MACOMB*        CLOUDY    75  74  98 W5        29.87R FOG
JACKSONVILLE*  CLOUDY    78  77  97 CALM      29.83R HX  80
PITTSFIELD*    CLOUDY    81  78  92 W5        29.87R HX  89
$$

ILZ028>032-037-038-041>044-048-051>054-059>061-230900-
CENTRAL ILLINOIS

CITY           SKY/WX    TMP DP  RH WIND       PRES   REMARKS
PONTIAC        CLOUDY    75  75  98 CALM      29.79F
BLOOMINGTON    MOCLDY    75  74  96 W5        29.81S
DECATUR        CLEAR     77  75  93 CALM      29.78F
PEORIA         CLOUDY    77  76  96 NW3       29.81S
LACON*         MOCLDY    75  75 100 CALM      29.79F
LINCOLN*       MOCLDY    78  77  98 CALM      29.79S
SPRINGFIELD    CLOUDY    79  78  97 NW5       29.81R HX  83
TAYLORVILLE    PTCLDY    76  76  99 NW3       29.79R
$$

ILZ033-039-045-046-055>057-062-063-230900-
EAST-CENTRAL ILLINOIS

CITY           SKY/WX    TMP DP  RH WIND       PRES   REMARKS
CHAMPAIGN      PTCLDY    74  73  97 W3        29.78F FOG
RANTOUL*       PTCLDY    76  75  96 CALM      29.78R
MATTOON        MOCLDY    76  75  97 S7        29.77F
PARIS*         PTCLDY    72  72  98 CALM      29.78S
$$

ILZ079-100>102-230900-
SOUTHWEST ILLINOIS

CITY           SKY/WX    TMP DP  RH WIND       PRES   REMARKS
ALTON          CLOUDY    83  77  82 NW5       29.80R HX  91
BELLEVILLE     CLOUDY    83  71  68 SW7       29.79S HX  88
CAHOKIA*       MOCLDY    84  72  67 W6        29.78S HX  89
SPARTA*        CLEAR     84  72  66 SW6       29.81S HX  90
$$

ILZ064>066-069>071-074>076-080>082-084>086-088>090-092>094-230900-
SOUTH-CENTRAL ILLINOIS

CITY           SKY/WX    TMP DP  RH WIND       PRES   REMARKS
CARBONDALE     CLEAR     83  76  79 SW12G21   29.80F HX  91
CAIRO*         CLEAR     82  75  81 SW9       29.83S HX  88
EFFINGHAM*     MOCLDY    79  76  88 CALM      29.78S HX  84
MARION         PTCLDY    84  75  74 SW9       29.81S HX  92
MT. VERNON     PTCLDY    80  75  84 SW7       29.78F HX  85
CENTRALIA*     PTCLDY    84  74  72 SW10      29.77F HX  91
SALEM*         PTCLDY    85  72  63 SW9       29.78S HX  91
METROPOLIS*    CLEAR     82  75  80 SW7       29.83F HX  88
$$

ILZ067-068-072-073-078-083-087-091-230900-
SOUTHEAST ILLINOIS

CITY           SKY/WX    TMP DP  RH WIND       PRES   REMARKS
LAWRENCEVILLE  CLOUDY    73  72  96 CALM      29.79F
FLORA*         CLOUDY    84  75  74 N3        29.77R HX  92
FAIRFIELD*     PTCLDY    82  75  80 SW6       29.76F HX  88
HARRISBURG*    RAIN      80  77  90 SW8       29.81S HX  87
ROBINSON*      CLOUDY    71  70  96 E3        29.79F
CARMI*         CLOUDY    82  75  79 SW10G18   29.78S HX  89
$$

ABBREVIATIONS USED IN REMARKS
   TC - TEMPERATURE IN CELSIUS
  WCI - WIND CHILL INDEX
   HX - HEAT INDEX
  VSB - VISIBILITY
$$




USA.gov is the U.S. government's official web portal to all federal, state and local government web resources and services.